Change the Weather History Date:

Wednesday, October 12, 2011

  Actual Average Record
Temperature  
Mean Temperature 62 °F -  
Max Temperature 71 °F 71 °F 78 °F (1997)
Min Temperature 53 °F 48 °F 39 °F (1996)
Degree Days  
Heating Degree Days 3    
Growing Degree Days 12 (Base 50)    
Moisture  
Dew Point 52 °F    
Average Humidity 74    
Maximum Humidity 94    
Minimum Humidity 49    
Precipitation  
Precipitation 0.00 in - - ()
Sea Level Pressure  
Sea Level Pressure 30.08 in    
Wind  
Wind Speed 3 mph ()    
Max Wind Speed 9 mph    
Max Gust Speed 21 mph    
Visibility 7.2 miles    
Events Rain , Thunderstorm    
Averages and records for this station are not official NWS values.
T = Trace of Precipitation, MM = Missing Value Source: Averaged Metar Reports

Daily Weather History Graph

Daily Weather History Graph

Search for Another Location

Airport or City:

Trip Planner

Search our weather history database for the weather conditions in past years. The results will help you decide how hot, cold, wet, or windy it might be!

Date:

Astronomy

Oct. 12, 2011 Rise Set
Actual Time 7:29 AM CDT 7:15 PM CDT
Civil Twilight 7:07 AM CDT 7:37 PM CDT
Nautical Twilight 6:42 AM CDT 8:03 PM CDT
Astronomical Twilight 6:16 AM CDT 8:28 PM CDT
Moon 7:34 PM CDT (10/12) 7:53 AM CDT (10/12)
Length of Visible Light 12h 29m
Length of Day
11h 45m
Full, 100% of the Moon is Illuminated
Oct 12
Full
Oct 19
Last Quarter
Oct 26
New
Nov 2
First Quarter
Nov 10
Full

Hourly Weather History & Observations

Time (CDT) Temp. Dew Point Humidity Pressure Visibility Wind Dir Wind Speed Gust Speed Precip Events Conditions
12:51 AM 60.8 °F 51.8 °F 72% 29.73 in 13.0 mi Calm Calm - N/A   Mostly Cloudy
1:52 AM 59.0 °F 51.8 °F 77% 30.20 in 10.0 mi Calm Calm - N/A   Partly Cloudy
2:56 AM 57.2 °F 51.8 °F 82% 30.19 in 10.0 mi East 6.9 mph - N/A   Scattered Clouds
3:49 AM 55.4 °F 53.6 °F 94% 29.70 in 10.0 mi NE 4.6 mph - N/A   Mostly Cloudy
4:46 AM 53.6 °F 51.8 °F 94% 30.18 in 7.0 mi NE 4.6 mph - N/A   Mostly Cloudy
5:45 AM 55.4 °F 53.6 °F 94% 30.19 in 5.0 mi North 4.6 mph - N/A   Mostly Cloudy
6:48 AM 55.4 °F 51.8 °F 88% 29.76 in 5.0 mi East 3.5 mph - N/A   Scattered Clouds
7:21 AM 53.6 °F 51.8 °F 94% 30.22 in 5.0 mi Calm Calm - N/A   Overcast
7:43 AM 53.6 °F 51.8 °F 94% 30.22 in 5.0 mi Calm Calm - N/A   Overcast
8:21 AM 55.4 °F 51.8 °F 88% 30.23 in 5.0 mi Calm Calm - N/A   Overcast
8:44 AM 57.2 °F 51.8 °F 82% 30.24 in 5.0 mi East 3.5 mph - N/A   Overcast
9:21 AM 59.0 °F 51.8 °F 77% 30.25 in 5.0 mi Calm Calm - N/A   Overcast
9:42 AM 60.8 °F 51.8 °F 72% 29.73 in 5.0 mi SSE 3.5 mph - N/A   Overcast
10:21 AM 62.6 °F 51.8 °F 68% 30.26 in 5.0 mi Calm Calm - N/A   Mostly Cloudy
10:44 AM 64.4 °F 51.8 °F 64% 30.26 in 5.0 mi East 3.5 mph - N/A   Mostly Cloudy
11:45 AM 66.2 °F 51.8 °F 60% 30.25 in 5.0 mi Calm Calm - N/A   Mostly Cloudy
12:44 PM 68.0 °F 50.0 °F 52% 29.73 in 6.0 mi Calm Calm - N/A   Overcast
1:42 PM 69.8 °F 50.0 °F 49% 30.20 in 6.0 mi ENE 4.6 mph - N/A   Overcast
2:45 PM 69.8 °F 50.0 °F 49% 30.17 in 6.0 mi NE 3.5 mph - N/A   Overcast
3:49 PM 71.6 °F 51.8 °F 50% 29.62 in 6.0 mi SE 5.8 mph - N/A   Mostly Cloudy
4:43 PM 69.8 °F 51.8 °F 53% 30.14 in 7.0 mi East 9.2 mph - N/A   Overcast
5:48 PM 68.0 °F 51.8 °F 56% 30.14 in 8.0 mi SE 9.2 mph - N/A   Overcast
6:48 PM 64.4 °F 53.6 °F 68% 29.74 in 8.0 mi NW 9.2 mph 20.7 mph N/A Rain Light Rain
7:45 PM 59.0 °F 55.4 °F 88% 30.22 in 4.0 mi NW 3.5 mph - N/A Rain , Thunderstorm Thunderstorms and Rain
8:47 PM 57.2 °F 53.6 °F 88% 30.24 in 10.0 mi East 8.1 mph - N/A   Overcast
9:45 PM 59.0 °F 50.0 °F 72% 29.83 in 12.0 mi ESE 3.5 mph - N/A   Mostly Cloudy
10:46 PM 59.0 °F 51.8 °F 77% 30.29 in 12.0 mi SSE 3.5 mph - N/A   Mostly Cloudy
11:45 PM 59.0 °F 53.6 °F 82% 30.28 in 12.0 mi South 5.8 mph - N/A   Mostly Cloudy